Dillon, MT

9:34 PM MDT on May 27, 2017 (GMT -0600)
Dillon

Weather History for KDLN - January, 2014

Change the Weather History Date:

Sunday, January 5, 2014

  Actual Average Record
Temperature  
Mean Temperature 9 °F 22 °F  
Max Temperature 20 °F 31 °F 52 °F (2012)
Min Temperature -2 °F 12 °F -29 °F (2004)
Degree Days  
Heating Degree Days 56    
Month to date heating degree days 205  
Since 1 July heating degree days 3535  
Cooling Degree Days 0    
Month to date cooling degree days 0  
Year to date cooling degree days 0  
Moisture  
Dew Point -4 °F    
Average Humidity 71    
Maximum Humidity 87    
Minimum Humidity 55    
Precipitation  
Precipitation T in 0.00 in 0.07 in (1940)
Month to date precipitation 0.02 0.04  
Year to date precipitation 0.02 0.04  
Snow  
Snow 0.00 in - - ()
Snow Depth T in    
Sea Level Pressure  
Sea Level Pressure 30.55 in    
Wind  
Wind Speed 11 mph (ENE)    
Max Wind Speed 30 mph    
Max Gust Speed 35 mph    
Visibility 9 miles    
Events Snow    
T = Trace of Precipitation, MM = Missing Value Source: NWS Daily Summary

Daily Weather History Graph

Daily Weather History Graph

Search for Another Location

Airport or City:

Trip Planner

Search our weather history database for the weather conditions in past years. The results will help you decide how hot, cold, wet, or windy it might be!

Date:

Astronomy

Jan. 05, 2014 Rise Set
Actual Time 8:09 AM MST 5:02 PM MST
Civil Twilight 7:35 AM MST 5:36 PM MST
Nautical Twilight 6:58 AM MST 6:13 PM MST
Astronomical Twilight 6:22 AM MST 6:48 PM MST
Moon 10:37 AM MST (1/5) 10:51 PM MST (1/5)
Length of Visible Light 10h 00m
Length of Day
8h 53m
Waxing Crescent, 25% of the Moon is Illuminated
Jan 5
Waxing Crescent
Jan 7
First Quarter
Jan 15
Full
Jan 23
Last Quarter
Jan 30
New

Hourly Weather History & Observations

Time (MST) Temp. Windchill Dew Point Humidity Pressure Visibility Wind Dir Wind Speed Gust Speed Precip Events Conditions
12:53 AM 18.0 °F 5.4 °F 7.0 °F 62% 30.27 in 10.0 mi SW 11.5 mph - N/A   Overcast
1:53 AM 19.9 °F 13.4 °F 6.1 °F 55% 30.27 in 10.0 mi West 4.6 mph 16.1 mph N/A   Overcast
2:53 AM 17.1 °F 6.6 °F 6.1 °F 62% 30.31 in 10.0 mi SW 8.1 mph - N/A   Overcast
3:53 AM 5.0 °F -15.7 °F 1.0 °F 84% 30.40 in 9.0 mi ENE 20.7 mph 28.8 mph N/A   Overcast
4:16 AM 3.9 °F -17.6 °F -0.0 °F 84% 30.20 in 4.0 mi ENE 21.9 mph 28.8 mph N/A   Overcast
4:24 AM 3.9 °F -18.1 °F -0.0 °F 84% 30.21 in 2.5 mi NE 23.0 mph 28.8 mph N/A   Overcast
4:53 AM 3.0 °F -19.3 °F -0.9 °F 84% 30.48 in 5.0 mi NE 23.0 mph 27.6 mph N/A   Overcast
5:07 AM 3.0 °F -18.3 °F -2.0 °F 80% 30.24 in 10.0 mi NE 20.7 mph 33.4 mph N/A   Overcast
5:53 AM 3.0 °F -21.0 °F -2.9 °F 76% 30.52 in 8.0 mi NE 27.6 mph 33.4 mph N/A   Overcast
6:08 AM 3.0 °F -21.4 °F -4.0 °F 73% 30.28 in 4.0 mi NE 28.8 mph - 0.00 in Snow Light Snow
6:44 AM 1.9 °F -22.0 °F -5.1 °F 72% 30.30 in 9.0 mi NE 26.5 mph 33.4 mph 0.00 in   Overcast
6:53 AM 1.9 °F -21.2 °F -5.1 °F 72% 30.58 in 8.0 mi NE 24.2 mph - 0.00 in   Overcast
7:53 AM 1.0 °F -20.9 °F -5.1 °F 75% 30.64 in 10.0 mi NE 20.7 mph - 0.00 in   Overcast
8:36 AM -0.0 °F -22.9 °F -6.0 °F 76% 30.38 in 7.0 mi NE 21.9 mph - 0.00 in Snow Light Snow
8:49 AM -0.4 °F -23.3 °F -5.8 °F 78% 30.39 in 10.0 mi NE 21.9 mph 31.1 mph 0.00 in   Mostly Cloudy
8:53 AM -0.0 °F -22.9 °F -6.0 °F 76% 30.69 in 10.0 mi NE 21.9 mph 31.1 mph 0.00 in   Mostly Cloudy
9:53 AM -0.0 °F -20.7 °F -7.1 °F 72% 30.73 in 10.0 mi NE 17.3 mph - N/A   Mostly Cloudy
10:41 AM 3.0 °F -17.3 °F -5.1 °F 69% 30.45 in 10.0 mi NE 18.4 mph - N/A   Mostly Cloudy
10:53 AM 1.9 °F -18.7 °F -7.1 °F 66% 30.74 in 10.0 mi ENE 18.4 mph - N/A   Scattered Clouds
11:53 AM 5.0 °F -12.3 °F -5.1 °F 63% 30.70 in 10.0 mi NE 13.8 mph - N/A   Clear
12:53 PM 6.1 °F -9.5 °F -6.0 °F 58% 30.69 in 10.0 mi NE 11.5 mph - N/A   Clear
1:53 PM 8.1 °F -0.5 °F -6.0 °F 53% 30.66 in 10.0 mi NNE 4.6 mph - N/A   Clear
2:53 PM 9.0 °F - -5.1 °F 53% 30.67 in 10.0 mi Calm Calm - N/A   Clear
3:53 PM 9.0 °F - -5.1 °F 53% 30.72 in 10.0 mi Calm Calm - N/A   Clear
4:53 PM 7.0 °F - -5.1 °F 58% 30.74 in 10.0 mi Calm Calm - N/A   Clear
5:53 PM 3.0 °F - -6.0 °F 66% 30.75 in 10.0 mi Calm Calm - N/A   Clear
6:53 PM 1.9 °F -9.2 °F -5.1 °F 72% 30.75 in 10.0 mi SSE 5.8 mph - N/A   Clear
7:53 PM -0.0 °F -9.9 °F -7.1 °F 72% 30.75 in 10.0 mi SSE 4.6 mph - N/A   Clear
8:53 PM -0.0 °F -7.9 °F -6.0 °F 76% 30.76 in 10.0 mi SSE 3.5 mph - N/A   Clear
9:53 PM -0.9 °F -11.0 °F -7.1 °F 75% 30.74 in 10.0 mi SW 4.6 mph - N/A   Clear
10:53 PM -2.0 °F -12.2 °F -7.1 °F 79% 30.73 in 10.0 mi SE 4.6 mph - N/A   Clear
11:53 PM -0.9 °F -12.7 °F -7.1 °F 75% 30.70 in 10.0 mi SE 5.8 mph - N/A   Clear